Regional Weather Roundup
Issued by NWS

Home | Current Version | Previous Version | Text Only | Print | Product List | Glossary Off
Versions: 1 2 3 4 5 6 7 8 9 10 11 12 13 14 15 16 17 18 19 20 21 22 23 24 25 26 27 28 29 30 31 32 33 34 35 36 37 38 39 40 41 42 43 44 45 46 47 48 49 50

000
ASUS43 KBIS 070902
RWRND

NORTH DAKOTA REGIONAL WEATHER ROUNDUP
NATIONAL WEATHER SERVICE BISMARCK ND
300 AM CST WED DEC 07 2016

NOTE: "FAIR" INDICATES FEW OR NO CLOUDS BELOW 12,000 FEET WITH NO
SIGNIFICANT WEATHER AND/OR OBSTRUCTIONS TO VISIBILITY.


NDZ001>003-009>011-017-071000-
NORTHWEST NORTH DAKOTA

CITY           SKY/WX    TMP DP  RH WIND       PRES   REMARKS
WILLISTON      CLOUDY     4  -3  73 NW13      30.24R WCI -13
MINOT          LGT SNOW   7   2  80 W35G43    30.03R WCI -18
MINOT AFB      SNOW       6   2  84 NW39G46   30.01S VSB 1/2 WCI -21
$$

NDZ018>021-031>035-040>046-071000-
SOUTHWEST NORTH DAKOTA

CITY           SKY/WX    TMP DP  RH WIND       PRES   REMARKS
BISMARCK       CLOUDY     4  -1  80 NW20G32   30.11R WCI -17
DICKINSON      MIX PCPN   0  -6  76 NW29G35   30.12R WCI -26
GARRISON         N/A      5   1  83 NW30G39   30.07R WCI -19
HETTINGER ARPT CLOUDY     0  -6  76 NW18G31   30.16R WCI -21
$$

NDZ004>008-012>016-024-026-027-054-071000-
NORTHEAST NORTH DAKOTA

CITY           SKY/WX    TMP DP  RH WIND       PRES   REMARKS
GRAND FORKS    LGT SNOW  16  11  80 NW30G41   29.81R VSB 1   WCI  -4
GRND FRKS AFB  LGT SNOW  14   9  79 NW20G31   29.82R WCI  -3
DEVILS LAKE    LGT SNOW   9   5  84 NW35G41   29.87R FOG     WCI -15
$$

NDZ022-023-025-028>030-036>039-047>053-071000-
SOUTHEAST NORTH DAKOTA

CITY           SKY/WX    TMP DP  RH WIND       PRES   REMARKS
FARGO          CLOUDY    13   7  77 W22       29.89R HAZE    WCI  -6
JAMESTOWN      MOCLDY     7   3  84 NW30G38   29.94R BLWGSNOWWCI -16
$$





USA.gov is the U.S. government's official web portal to all federal, state and local government web resources and services.